Weather History for Laramie, WY

Change the Weather History Date:

Sunday, November 11, 2012

  Actual Average Record
Temperature  
Mean Temperature 16 °F 31 °F  
Max Temperature 23 °F 44 °F 64 °F (1971)
Min Temperature 9 °F 19 °F -13 °F (2000)
Degree Days  
Heating Degree Days 49 34  
Month to date heating degree days 287 344  
Since 1 July heating degree days 1352 1587  
Cooling Degree Days 0 0  
Month to date cooling degree days 0 0  
Year to date cooling degree days 211 67  
Moisture  
Dew Point 4 °F    
Average Humidity 66    
Maximum Humidity 92    
Minimum Humidity 39    
Precipitation  
Precipitation 0.00 in 0.02 in 0.54 in (1982)
Month to date precipitation 0.16 0.23  
Year to date precipitation 6.06 10.29  
Sea Level Pressure  
Sea Level Pressure 30.06 in    
Wind  
Wind Speed 16 mph (West)    
Max Wind Speed 35 mph    
Max Gust Speed 41 mph    
Visibility 10 miles    
Events      
T = Trace of Precipitation, MM = Missing Value Source: NWS Daily Summary

Daily Weather History Graph

Daily Weather History Graph

Search for Another Location

Airport:

Trip Planner

Search our weather history database for the weather conditions in past years. The results will help you decide how hot, cold, wet, or windy it might be!

Date:

Astronomy

Nov. 11, 2012 Rise Set
Actual Time 6:46 AM MST 4:46 PM MST
Civil Twilight 6:17 AM MST 5:15 PM MST
Nautical Twilight 5:44 AM MST 5:48 PM MST
Astronomical Twilight 5:11 AM MST 6:21 PM MST
Moon 4:02 AM MST (11/11) 3:12 PM MST (11/11)
Length of Visible Light 10h 58m
Length of Day
9h 59m
Waning Crescent, 7% of the Moon is Illuminated
Nov 11
Waning Crescent
Nov 13
New
Nov 20
First Quarter
Nov 28
Full
Dec 6
Last Quarter

Hourly Weather History & Observations

Time (MST) Temp. Windchill Dew Point Humidity Pressure Visibility Wind Dir Wind Speed Gust Speed Precip Events Conditions
12:53 AM 12.0 °F 4.1 °F 8.1 °F 84% 29.81 in 10.0 mi North 4.6 mph - N/A   Clear
1:53 AM 12.0 °F - 8.1 °F 84% 29.82 in 10.0 mi Calm Calm - N/A   Clear
2:53 AM 10.9 °F 4.7 °F 8.1 °F 88% 29.85 in 10.0 mi ENE 3.5 mph - N/A   Clear
3:53 AM 10.0 °F - 8.1 °F 92% 29.88 in 10.0 mi Calm Calm - N/A   Clear
4:53 AM 10.9 °F 2.9 °F 7.0 °F 84% 29.92 in 10.0 mi East 4.6 mph - N/A   Clear
5:53 AM 12.9 °F 6.9 °F 7.0 °F 77% 29.95 in 10.0 mi Variable 3.5 mph - N/A   Mostly Cloudy
7:53 AM 16.0 °F 3.6 °F 6.1 °F 65% 30.00 in 10.0 mi West 10.4 mph 19.6 mph N/A   Clear
10:53 AM 21.0 °F 2.4 °F 5.0 °F 50% 30.02 in 10.0 mi West 31.1 mph 41.4 mph N/A   Clear
11:53 AM 21.9 °F 3.4 °F 5.0 °F 48% 30.02 in 10.0 mi West 32.2 mph 38.0 mph N/A   Partly Cloudy
12:53 PM 21.9 °F 4.2 °F 3.9 °F 46% 30.02 in 10.0 mi WNW 28.8 mph 38.0 mph N/A   Scattered Clouds
1:53 PM 19.9 °F 2.5 °F 1.0 °F 44% 30.05 in 10.0 mi WNW 25.3 mph 32.2 mph N/A   Overcast
2:53 PM 21.0 °F 3.3 °F -0.0 °F 40% 30.06 in 10.0 mi West 27.6 mph 38.0 mph N/A   Scattered Clouds
3:53 PM 19.0 °F 3.2 °F 5.0 °F 54% 30.12 in 10.0 mi WNW 19.6 mph - N/A   Mostly Cloudy
4:53 PM 17.1 °F 3.0 °F 3.9 °F 56% 30.16 in 10.0 mi West 13.8 mph - N/A   Overcast
5:53 PM 16.0 °F 1.7 °F 5.0 °F 62% 30.18 in 10.0 mi WSW 13.8 mph - N/A   Overcast
6:53 PM 17.1 °F -1.0 °F 3.9 °F 56% 30.22 in 10.0 mi West 24.2 mph 27.6 mph N/A   Overcast
7:53 PM 16.0 °F -1.3 °F 3.9 °F 59% 30.21 in 10.0 mi West 20.7 mph - N/A   Mostly Cloudy
8:53 PM 14.0 °F -0.2 °F 3.0 °F 62% 30.22 in 10.0 mi West 12.7 mph - N/A   Clear
9:53 PM 15.1 °F -2.9 °F 1.0 °F 54% 30.22 in 10.0 mi West 21.9 mph 29.9 mph N/A   Clear
10:53 PM 14.0 °F -3.9 °F 1.0 °F 56% 30.25 in 10.0 mi West 20.7 mph - N/A   Clear
11:53 PM 12.9 °F -5.7 °F -0.0 °F 56% 30.26 in 10.0 mi WSW 21.9 mph - N/A   Clear